Total_Precipitation_Accumulation
1.09 1.11 1.09 0.98 0.85 0.80 0.75 0.69 0.70 0.74 0.78 0.78 0.83 0.93 0.96 0.98 1.03 1.03 1.07 1.12 1.21 1.34 1.40 1.55 1.78 1.98 2.07 2.07 2.12 2.18 2.19 2.04 1.77 1.61 1.36 1.32 1.42 1.36 1.37 1.34 1.44 1.48 1.24
1.07 1.05 1.01 0.94 0.85 0.83 0.76 0.67 0.69 0.74 0.75 0.75 0.82 0.87 0.88 0.94 0.97 0.94 0.96 1.02 1.13 1.23 1.25 1.28 1.40 1.67 1.83 1.95 2.04 2.07 2.13 2.08 1.89 1.85 1.73 1.49 1.41 1.38 1.49 1.59 1.55 1.52 1.43
1.10 1.02 1.01 0.96 0.94 0.96 0.83 0.74 0.74 0.81 0.92 0.93 0.91 0.94 0.90 0.93 0.94 0.93 0.96 1.00 1.02 1.08 1.13 1.14 1.25 1.38 1.53 1.63 1.74 1.85 1.92 2.03 2.01 1.83 1.88 1.79 1.55 1.49 1.50 1.61 1.69 1.80 1.65
1.25 1.13 1.08 1.08 1.11 1.08 0.93 0.85 0.79 0.79 0.82 0.83 0.90 0.96 1.02 1.07 1.05 1.00 1.02 1.03 0.98 1.00 1.05 1.12 1.16 1.20 1.37 1.60 1.70 1.78 1.82 1.93 2.05 1.98 1.91 1.85 1.71 1.62 1.59 1.64 1.82 1.93 1.91
1.26 1.11 1.02 0.99 0.97 0.93 0.93 0.98 0.91 0.79 0.73 0.71 0.79 0.86 0.95 1.04 1.09 1.09 0.96 0.87 0.89 0.94 0.94 0.93 1.02 1.13 1.23 1.44 1.55 1.78 1.82 1.95 2.03 2.07 1.96 1.78 1.66 1.62 1.57 1.56 1.74 1.97 2.02
1.07 1.00 0.89 0.89 0.86 0.78 0.82 0.94 0.97 0.84 0.76 0.72 0.71 0.68 0.71 0.75 0.95 0.95 0.83 0.72 0.76 0.88 0.94 0.93 0.93 1.00 1.07 1.14 1.20 1.44 1.64 1.80 1.92 1.92 1.91 1.76 1.61 1.56 1.65 1.68 1.72 1.81 1.94
0.81 0.78 0.68 0.70 0.83 0.86 0.90 0.89 0.81 0.72 0.74 0.73 0.65 0.58 0.58 0.64 0.70 0.67 0.72 0.70 0.71 0.78 0.87 0.96 1.01 0.98 1.05 1.13 1.15 1.24 1.34 1.41 1.56 1.68 1.70 1.62 1.59 1.54 1.63 1.69 1.70 1.65 1.58
0.55 0.54 0.50 0.57 0.74 0.78 0.74 0.71 0.65 0.63 0.67 0.72 0.65 0.60 0.63 0.64 0.67 0.69 0.71 0.69 0.79 0.87 0.87 0.87 1.00 1.05 1.09 1.25 1.25 1.34 1.28 1.20 1.22 1.31 1.45 1.50 1.46 1.53 1.63 1.82 1.93 1.79 1.64
0.38 0.39 0.46 0.49 0.51 0.52 0.50 0.51 0.56 0.61 0.62 0.57 0.60 0.73 0.72 0.73 0.84 0.77 0.67 0.71 0.83 0.90 0.85 0.86 0.98 1.06 1.24 1.36 1.38 1.39 1.29 1.23 1.30 1.39 1.50 1.57 1.58 1.63 1.71 1.80 1.87 1.89 1.80
0.36 0.40 0.43 0.47 0.50 0.49 0.49 0.49 0.52 0.56 0.61 0.61 0.64 0.76 0.80 0.81 0.85 0.72 0.69 0.76 0.86 0.93 0.91 0.89 1.10 1.08 1.20 1.25 1.30 1.42 1.43 1.32 1.30 1.30 1.33 1.39 1.38 1.47 1.72 1.77 1.90 1.99 1.84
0.43 0.42 0.42 0.45 0.49 0.53 0.54 0.53 0.52 0.53 0.57 0.63 0.65 0.68 0.67 0.64 0.63 0.64 0.66 0.69 0.78 0.87 0.86 0.86 0.82 0.98 1.02 1.12 1.23 1.28 1.52 1.45 1.38 1.39 1.34 1.26 1.26 1.30 1.43 1.64 1.81 1.87 1.82
0.45 0.43 0.43 0.47 0.49 0.52 0.59 0.58 0.56 0.57 0.56 0.57 0.62 0.67 0.68 0.61 0.58 0.57 0.61 0.67 0.77 0.77 0.74 0.78 0.78 0.89 0.92 0.99 1.00 1.17 1.40 1.39 1.31 1.41 1.40 1.33 1.27 1.29 1.31 1.39 1.56 1.60 1.56
0.42 0.46 0.48 0.50 0.49 0.48 0.52 0.55 0.56 0.57 0.57 0.58 0.61 0.66 0.66 0.64 0.64 0.67 0.65 0.70 0.72 0.64 0.59 0.75 0.82 0.89 0.85 0.81 0.95 1.16 1.21 1.24 1.38 1.35 1.37 1.32 1.25 1.28 1.28 1.35 1.43 1.43 1.38
0.47 0.51 0.54 0.55 0.54 0.52 0.53 0.57 0.60 0.60 0.60 0.58 0.59 0.66 0.70 0.70 0.67 0.63 0.61 0.62 0.62 0.59 0.61 0.79 0.94 0.97 0.90 0.85 0.92 1.05 1.09 1.21 1.37 1.26 1.23 1.20 1.18 1.27 1.33 1.39 1.35 1.36 1.39
0.49 0.55 0.60 0.60 0.59 0.59 0.60 0.60 0.60 0.59 0.62 0.60 0.61 0.65 0.67 0.65 0.67 0.71 0.67 0.64 0.63 0.65 0.74 0.91 1.05 1.06 1.06 0.99 0.99 1.07 1.06 1.04 1.11 1.07 1.11 1.16 1.19 1.21 1.22 1.29 1.30 1.25 1.28
0.52 0.52 0.52 0.58 0.61 0.58 0.57 0.57 0.60 0.61 0.65 0.62 0.59 0.62 0.63 0.64 0.69 0.71 0.72 0.72 0.70 0.81 0.96 1.10 1.21 1.28 1.29 1.25 1.21 1.16 1.06 1.02 0.97 1.00 1.12 1.15 1.13 1.17 1.20 1.23 1.30 1.29 1.27
0.48 0.50 0.50 0.50 0.51 0.54 0.56 0.55 0.59 0.59 0.57 0.57 0.58 0.60 0.62 0.65 0.67 0.77 0.85 0.86 0.87 1.05 1.21 1.24 1.28 1.33 1.34 1.28 1.20 1.10 0.98 0.90 0.91 0.98 1.01 1.04 1.07 1.11 1.17 1.19 1.22 1.25 1.20
0.42 0.53 0.54 0.51 0.52 0.54 0.55 0.56 0.59 0.65 0.65 0.58 0.56 0.56 0.58 0.61 0.66 0.80 0.98 1.10 1.12 1.22 1.29 1.32 1.40 1.39 1.33 1.20 1.07 0.98 0.86 0.83 0.87 0.89 0.90 0.87 0.94 1.03 1.08 1.12 1.16 1.20 1.18
0.35 0.44 0.51 0.53 0.54 0.56 0.57 0.56 0.58 0.62 0.65 0.67 0.65 0.62 0.61 0.62 0.63 0.70 0.78 0.83 0.86 0.93 0.99 1.03 1.09 1.12 1.08 0.99 0.93 0.90 0.84 0.82 0.82 0.83 0.84 0.85 0.92 0.97 0.96 0.99 1.07 1.21 1.25
0.32 0.43 0.50 0.54 0.55 0.55 0.58 0.56 0.56 0.57 0.59 0.60 0.62 0.64 0.67 0.70 0.65 0.64 0.64 0.66 0.71 0.74 0.77 0.79 0.80 0.78 0.79 0.80 0.82 0.86 0.87 0.86 0.87 0.87 0.89 0.90 0.94 1.00 0.97 0.97 1.01 1.09 1.15
0.30 0.37 0.46 0.51 0.52 0.52 0.52 0.54 0.54 0.55 0.56 0.58 0.59 0.66 0.72 0.70 0.69 0.70 0.72 0.71 0.72 0.72 0.76 0.78 0.77 0.75 0.73 0.75 0.80 0.85 0.89 0.88 0.87 0.89 0.94 0.96 0.97 1.00 1.00 1.02 1.04 1.09 1.14
0.31 0.34 0.39 0.44 0.52 0.54 0.52 0.50 0.51 0.50 0.50 0.54 0.55 0.59 0.66 0.63 0.66 0.68 0.70 0.73 0.74 0.74 0.74 0.77 0.77 0.77 0.79 0.80 0.85 0.93 0.96 0.97 0.96 0.95 0.96 0.96 0.98 1.01 1.03 1.05 1.08 1.14 1.19
0.34 0.37 0.40 0.43 0.46 0.54 0.58 0.53 0.52 0.52 0.53 0.55 0.56 0.55 0.57 0.57 0.62 0.65 0.66 0.70 0.76 0.76 0.73 0.73 0.76 0.78 0.76 0.75 0.79 0.89 0.97 1.01 1.05 1.06 1.05 1.04 1.05 1.07 1.10 1.11 1.08 1.10 1.15
0.39 0.42 0.42 0.43 0.44 0.47 0.51 0.55 0.59 0.58 0.56 0.57 0.58 0.58 0.58 0.58 0.61 0.64 0.64 0.65 0.70 0.74 0.74 0.75 0.76 0.77 0.78 0.79 0.83 0.87 0.93 1.02 1.09 1.16 1.19 1.19 1.15 1.13 1.14 1.16 1.13 1.13 1.21
0.39 0.43 0.45 0.47 0.48 0.51 0.53 0.55 0.60 0.66 0.64 0.62 0.64 0.63 0.61 0.60 0.62 0.68 0.70 0.68 0.68 0.70 0.71 0.74 0.74 0.76 0.80 0.82 0.84 0.89 1.07 1.13 1.13 1.14 1.17 1.20 1.15 1.14 1.17 1.17 1.17 1.19 1.25
0.37 0.42 0.48 0.50 0.52 0.56 0.58 0.58 0.60 0.65 0.68 0.68 0.66 0.66 0.65 0.67 0.67 0.68 0.73 0.76 0.76 0.76 0.77 0.81 0.81 0.77 0.74 0.73 0.75 0.83 0.96 0.99 1.02 1.09 1.12 1.17 1.20 1.19 1.20 1.24 1.21 1.22 1.26